Location: Dittelbrunn
(50.0738°N, 10.2196°E)
Time: 05:26:54
(UTC+00:00)

COSMOS 2406 - Pass Details

Date: 18 September 2020
Orbit: 844 x 863 km, 71.0° (Epoch: 20 October)

Event Time Altitude Azimuth Distance (km) Brightness Sun altitude
Rises 20:46:50 0° 329° (NNW) 3,415 7.5 -29.8°
Reaches altitude 10° 20:49:18 10° 326° (NW) 2,476 6.5 -30.0°
Enters shadow 20:54:23 60° 275° (W) 964 3.5 -30.6°
